Previsão horária em Aaruti

Hoje, 17 Abril, Sábado

Tempo Temperatura Precipitação Vento Pressão Humidade
00:00 -1°C° 0 mm 1 m/s 721 mmHg 93%
01:00 -2°C° 0 mm 1 m/s 721 mmHg 94%
02:00 -2°C° 0 mm 1 m/s 720 mmHg 95%
03:00 -2°C° 0 mm 1 m/s 720 mmHg 95%
04:00 -2°C° 0 mm 1 m/s 720 mmHg 96%
05:00 -1°C° 0 mm 1 m/s 720 mmHg 93%
06:00 -1°C° 0 mm 1 m/s 720 mmHg 89%
07:00 0°C° 0 mm 1 m/s 721 mmHg 86%
08:00 +1°C° 0 mm 2 m/s 720 mmHg 76%
09:00 +4°C° 0 mm 2 m/s 720 mmHg 66%
10:00 +5°C° 0 mm 3 m/s 720 mmHg 57%
11:00 +7°C° 0 mm 3 m/s 720 mmHg 55%
12:00 +7°C° 0 mm 4 m/s 719 mmHg 53%
13:00 +7°C° 0 mm 4 m/s 719 mmHg 51%
14:00 +7°C° 0 mm 4 m/s 719 mmHg 53%
15:00 +7°C° 0 mm 4 m/s 719 mmHg 54%
16:00 +7°C° 0 mm 4 m/s 719 mmHg 56%
17:00 +7°C° 0 mm 3 m/s 719 mmHg 61%
18:00 +6°C° 0 mm 2 m/s 719 mmHg 66%
19:00 +5°C° 0 mm 2 m/s 718 mmHg 70%
20:00 +6°C° 0 mm 1 m/s 719 mmHg 76%
21:00 +5°C° 0 mm 1 m/s 719 mmHg 81%
22:00 +4°C° 0 mm 1 m/s 719 mmHg 86%
23:00 +4°C° 0 mm 1 m/s 719 mmHg 88%

Amanhã, 18 Abril, Domingo

Tempo Temperatura Precipitação Vento Pressão Humidade
00:00 +4°C° 0 mm 1 m/s 719 mmHg 91%
01:00 +3°C° 0 mm 1 m/s 719 mmHg 93%
02:00 +3°C° 0 mm 1 m/s 719 mmHg 94%
03:00 +3°C° 0 mm 1 m/s 719 mmHg 94%
04:00 +3°C° 0 mm 1 m/s 719 mmHg 95%
05:00 +3°C° 0 mm 1 m/s 719 mmHg 95%
06:00 +3°C° 0 mm 1 m/s 719 mmHg 96%
07:00 +2°C° 0 mm 0 m/s 719 mmHg 96%
08:00 +3°C° 0.1 mm 0 m/s 719 mmHg 94%
09:00 +3°C° 0.1 mm 0 m/s 719 mmHg 93%
10:00 +4°C° 0.1 mm 0 m/s 719 mmHg 91%
11:00 +4°C° 0.1 mm 0 m/s 719 mmHg 88%
12:00 +6°C° 0.1 mm 1 m/s 719 mmHg 85%
13:00 +6°C° 0.1 mm 1 m/s 719 mmHg 82%
14:00 +7°C° 0.1 mm 1 m/s 719 mmHg 78%
15:00 +7°C° 0.1 mm 1 m/s 719 mmHg 74%
16:00 +8°C° 0.1 mm 1 m/s 719 mmHg 71%
17:00 +7°C° 0.1 mm 1 m/s 719 mmHg 76%
18:00 +6°C° 0.1 mm 1 m/s 719 mmHg 82%
19:00 +5°C° 0.1 mm 1 m/s 719 mmHg 88%
20:00 +4°C° 0 mm 1 m/s 719 mmHg 90%
21:00 +2°C° 0 mm 0 m/s 719 mmHg 92%
22:00 +1°C° 0 mm 0 m/s 719 mmHg 94%
23:00 +1°C° 0 mm 0 m/s 719 mmHg 94%

Depois de amanhã, 19 Abril, Segunda-feira

Tempo Temperatura Precipitação Vento Pressão Humidade
00:00 +1°C° 0 mm 0 m/s 719 mmHg 94%
01:00 +1°C° 0 mm 0 m/s 719 mmHg 94%
02:00 +1°C° 0 mm 0 m/s 719 mmHg 94%
03:00 +1°C° 0 mm 0 m/s 719 mmHg 94%
04:00 +2°C° 0 mm 0 m/s 719 mmHg 94%
05:00 +2°C° 0.1 mm 0 m/s 719 mmHg 94%
06:00 +2°C° 0.1 mm 0 m/s 719 mmHg 93%
07:00 +3°C° 0.1 mm 0 m/s 719 mmHg 93%
08:00 +4°C° 0.1 mm 0 m/s 719 mmHg 90%
09:00 +5°C° 0.1 mm 0 m/s 718 mmHg 87%
10:00 +5°C° 0.1 mm 0 m/s 718 mmHg 84%
11:00 +7°C° 0.1 mm 1 m/s 718 mmHg 80%
12:00 +8°C° 0.1 mm 1 m/s 718 mmHg 76%
13:00 +9°C° 0.1 mm 1 m/s 718 mmHg 72%
14:00 +9°C° 0.1 mm 1 m/s 717 mmHg 67%
15:00 +10°C° 0.1 mm 1 m/s 717 mmHg 62%
16:00 +11°C° 0.1 mm 1 m/s 717 mmHg 57%
17:00 +9°C° 0 mm 1 m/s 717 mmHg 64%
18:00 +8°C° 0 mm 1 m/s 716 mmHg 71%
19:00 +6°C° 0 mm 1 m/s 716 mmHg 79%
20:00 +5°C° 0 mm 1 m/s 716 mmHg 83%
21:00 +4°C° 0 mm 1 m/s 717 mmHg 87%
22:00 +3°C° 0 mm 1 m/s 717 mmHg 91%
23:00 +3°C° 0 mm 1 m/s 717 mmHg 92%

20 Abril, Terça-feira

Tempo Temperatura Precipitação Vento Pressão Humidade
00:00 +2°C° 0 mm 1 m/s 716 mmHg 92%
01:00 +2°C° 0 mm 1 m/s 716 mmHg 93%
02:00 0°C° 0 mm 0 m/s 716 mmHg 93%
03:00 0°C° 0 mm 0 m/s 716 mmHg 94%
04:00 0°C° 0 mm 0 m/s 716 mmHg 94%
05:00 +1°C° 0 mm 0 m/s 716 mmHg 91%
06:00 +1°C° 0 mm 0 m/s 716 mmHg 88%
07:00 +2°C° 0 mm 0 m/s 716 mmHg 85%
08:00 +5°C° 0 mm 0 m/s 716 mmHg 76%
09:00 +8°C° 0 mm 1 m/s 716 mmHg 66%
10:00 +11°C° 0 mm 1 m/s 716 mmHg 56%
11:00 +12°C° 0 mm 1 m/s 715 mmHg 51%
12:00 +13°C° 0 mm 1 m/s 715 mmHg 46%
13:00 +14°C° 0 mm 1 m/s 715 mmHg 42%
14:00 +15°C° 0 mm 1 m/s 714 mmHg 41%
15:00 +15°C° 0 mm 1 m/s 714 mmHg 40%
16:00 +15°C° 0 mm 1 m/s 714 mmHg 40%
17:00 +13°C° 0 mm 1 m/s 714 mmHg 51%
18:00 +11°C° 0 mm 1 m/s 714 mmHg 61%
19:00 +9°C° 0 mm 1 m/s 714 mmHg 72%
20:00 +8°C° 0 mm 1 m/s 714 mmHg 78%
21:00 +6°C° 0 mm 1 m/s 715 mmHg 83%
22:00 +5°C° 0 mm 1 m/s 715 mmHg 89%
23:00 +5°C° 0 mm 1 m/s 715 mmHg 90%

21 Abril, Quarta-feira

Tempo Temperatura Precipitação Vento Pressão Humidade
00:00 +4°C° 0 mm 1 m/s 715 mmHg 90%
01:00 +4°C° 0 mm 1 m/s 716 mmHg 91%
02:00 +2°C° 0 mm 0 m/s 716 mmHg 91%
03:00 +2°C° 0 mm 0 m/s 716 mmHg 91%
04:00 +2°C° 0 mm 0 m/s 716 mmHg 92%
05:00 +3°C° 0 mm 0 m/s 716 mmHg 88%
06:00 +4°C° 0 mm 0 m/s 716 mmHg 85%
07:00 +4°C° 0 mm 0 m/s 716 mmHg 82%
08:00 +7°C° 0 mm 0 m/s 716 mmHg 73%
09:00 +10°C° 0 mm 0 m/s 716 mmHg 64%
10:00 +12°C° 0 mm 0 m/s 716 mmHg 56%
11:00 +14°C° 0.1 mm 1 m/s 716 mmHg 52%
12:00 +15°C° 0.1 mm 1 m/s 716 mmHg 48%
13:00 +16°C° 0.1 mm 1 m/s 715 mmHg 45%
14:00 +16°C° 0.2 mm 2 m/s 715 mmHg 47%
15:00 +16°C° 0.2 mm 2 m/s 715 mmHg 49%
16:00 +14°C° 0.2 mm 3 m/s 715 mmHg 52%
17:00 +12°C° 0.4 mm 3 m/s 716 mmHg 64%
18:00 +10°C° 0.4 mm 2 m/s 716 mmHg 77%
19:00 +7°C° 0.4 mm 2 m/s 717 mmHg 90%
20:00 +8°C° 0.1 mm 1 m/s 717 mmHg 92%
21:00 +8°C° 0.1 mm 1 m/s 718 mmHg 93%
22:00 +8°C° 0.1 mm 1 m/s 719 mmHg 94%
23:00 +7°C° 0.2 mm 1 m/s 719 mmHg 94%

22 Abril, Quinta-feira

Tempo Temperatura Precipitação Vento Pressão Humidade
00:00 +7°C° 0.2 mm 1 m/s 719 mmHg 94%
01:00 +6°C° 0.2 mm 1 m/s 719 mmHg 93%
02:00 +5°C° 0.1 mm 1 m/s 719 mmHg 92%
03:00 +5°C° 0.1 mm 1 m/s 720 mmHg 92%
04:00 +4°C° 0.1 mm 1 m/s 720 mmHg 91%
05:00 +3°C° 0 mm 0 m/s 720 mmHg 90%
06:00 +3°C° 0 mm 0 m/s 720 mmHg 89%
07:00 +3°C° 0 mm 0 m/s 721 mmHg 89%
08:00 +6°C° 0 mm 1 m/s 721 mmHg 80%
09:00 +7°C° 0 mm 1 m/s 721 mmHg 72%
10:00 +7°C° 0 mm 2 m/s 721 mmHg 64%
11:00 +8°C° 0.1 mm 2 m/s 721 mmHg 57%
12:00 +9°C° 0.1 mm 3 m/s 721 mmHg 49%
13:00 +10°C° 0.1 mm 3 m/s 721 mmHg 42%
14:00 +10°C° 0 mm 4 m/s 721 mmHg 40%
15:00 +10°C° 0 mm 4 m/s 721 mmHg 39%
16:00 +8°C° 0 mm 4 m/s 721 mmHg 37%
17:00 +8°C° 0 mm 3 m/s 722 mmHg 45%
18:00 +5°C° 0 mm 3 m/s 722 mmHg 53%
19:00 +5°C° 0 mm 2 m/s 723 mmHg 61%
20:00 +4°C° 0 mm 1 m/s 723 mmHg 68%
21:00 +3°C° 0 mm 1 m/s 723 mmHg 75%
22:00 +2°C° 0 mm 1 m/s 724 mmHg 82%
23:00 +1°C° 0 mm 1 m/s 724 mmHg 84%
Mostrar mais